Wetbulb
30.82 32.06 30.01 27.59 26.27 25.23 17.64 20.65 14.12 16.33 15.38 21.21 24.12 27.12 31.58 32.58 33.59 33.62 33.51 34.23 34.71 34.73 35.25 36.02 35.99 36.59 37.27 37.63 37.46 37.87 37.58 38.04 38.00 39.56 38.98 38.84 38.77 38.77 38.10 37.78 37.85 38.40 39.14 40.22
26.25 31.68 30.03 26.03 27.60 26.88 25.47 23.13 17.33 21.70 15.48 25.45 29.69 32.80 32.07 32.28 33.10 33.09 33.43 33.74 34.60 35.64 35.92 35.73 35.82 35.86 36.90 37.35 37.35 37.41 36.88 37.17 37.88 38.77 38.96 38.33 39.09 38.82 38.64 38.17 37.97 37.01 36.59 37.86
22.71 30.60 27.59 22.01 20.66 26.15 26.27 26.44 24.14 15.22 19.41 27.47 27.92 30.93 30.62 31.63 33.03 33.20 34.10 33.97 34.37 35.52 35.43 35.33 35.81 36.62 36.18 37.10 37.63 36.97 36.63 37.29 37.47 37.30 37.70 37.02 37.98 37.98 37.82 38.19 38.33 37.91 36.90 37.16
22.07 25.66 16.29 27.86 33.30 31.24 29.14 29.42 30.12 30.21 28.68 30.36 30.63 32.31 33.08 33.68 32.74 33.75 34.77 34.99 34.74 35.07 35.65 35.50 35.99 36.73 36.97 37.63 37.32 36.75 36.55 36.88 36.99 36.82 36.56 36.70 36.88 37.19 36.87 37.59 38.37 37.75 37.91 38.24
16.98 21.57 25.05 28.74 32.05 27.97 27.40 25.82 33.08 31.62 30.91 31.62 32.72 34.63 31.16 35.61 35.83 35.09 35.03 35.42 34.71 35.56 36.27 36.07 35.90 36.51 36.55 36.48 36.82 36.05 35.82 36.65 36.42 36.78 37.05 36.40 35.57 35.93 36.16 35.65 36.28 36.88 37.61 38.52
20.94 17.37 16.55 23.71 31.64 36.06 33.59 19.17 33.55 34.56 31.24 30.86 30.91 21.75 25.48 34.30 36.17 36.10 36.29 35.49 35.07 35.96 36.10 35.74 35.42 35.70 35.29 34.93 35.55 35.25 35.74 36.84 37.07 36.78 37.09 34.82 34.87 34.87 35.43 35.16 34.82 34.12 33.97 35.83
11.89 9.17 21.91 31.49 34.33 35.37 19.52 21.73 33.86 34.12 32.49 31.06 27.14 28.63 33.16 35.44 35.59 36.82 36.09 35.85 36.59 35.85 35.06 35.07 35.66 35.62 34.51 34.19 34.08 35.77 36.19 36.78 37.30 36.82 35.31 35.13 34.60 34.12 33.92 33.91 32.09 31.10 31.45 32.33
18.53 9.43 10.22 34.61 33.82 26.11 28.73 33.18 34.23 33.79 33.02 32.71 32.28 34.32 35.15 35.78 35.46 36.02 35.71 36.12 36.14 34.95 34.62 35.02 34.66 34.44 33.14 32.56 35.39 35.18 34.74 35.06 35.73 36.03 35.33 35.01 34.60 34.18 33.80 33.28 32.86 32.53 31.48 30.98
22.66 19.64 32.19 35.13 34.26 35.35 36.35 34.96 34.63 34.25 34.57 35.26 34.12 33.91 35.32 34.81 35.23 36.13 35.45 34.88 35.64 33.08 33.43 33.59 33.85 33.91 31.90 33.16 34.33 33.87 33.42 33.40 34.90 34.43 33.56 33.70 33.34 32.87 32.52 33.12 32.45 31.76 31.07 30.80
25.93 31.17 33.38 36.10 38.07 37.66 37.39 35.21 36.47 36.03 34.88 35.18 33.47 34.74 34.28 35.36 34.84 34.42 34.29 33.63 34.07 32.66 32.15 31.41 32.74 33.99 33.28 34.10 34.53 33.90 33.11 32.59 33.16 31.50 31.68 33.09 33.65 33.38 32.85 32.29 32.06 31.81 31.18 31.03
29.38 32.73 35.12 37.16 37.20 37.38 37.27 37.76 37.98 38.23 36.82 35.42 34.71 34.13 34.15 34.19 34.39 34.86 35.25 34.50 33.38 32.34 31.90 31.78 32.29 33.65 33.91 34.16 35.32 34.26 32.99 31.11 30.52 30.52 30.61 31.99 32.87 33.28 32.44 33.13 32.95 32.10 32.26 31.84
24.98 33.67 33.85 34.79 38.26 39.42 37.15 36.43 37.38 36.36 35.61 36.60 36.19 35.42 35.63 33.81 33.88 33.64 32.59 32.15 31.15 31.26 31.47 32.52 32.89 32.63 33.53 34.87 34.09 31.95 29.71 30.00 30.14 30.37 30.49 31.03 31.27 31.68 33.73 32.75 33.64 33.59 33.37 32.32
33.14 37.27 36.48 37.50 38.24 38.99 37.30 37.17 37.73 36.64 36.35 36.33 35.75 34.98 34.61 32.68 32.01 32.40 30.64 30.79 30.63 30.88 31.73 31.45 31.59 31.24 32.31 33.81 32.82 31.59 30.05 30.64 30.92 30.88 31.05 30.68 30.96 30.70 30.43 32.83 33.63 33.55 33.54 33.76
37.91 37.48 34.60 36.40 35.53 38.25 38.11 38.28 38.87 37.88 37.03 35.63 34.77 34.41 33.04 31.73 30.38 29.49 29.83 31.20 31.16 30.59 29.25 29.05 30.85 30.60 32.61 32.78 31.89 30.30 31.77 31.15 31.51 30.74 30.87 31.00 31.03 31.19 31.79 30.34 29.90 30.89 32.79 32.77
37.53 37.62 36.51 37.75 38.08 36.90 37.63 37.25 35.63 34.13 33.70 33.26 33.57 31.75 31.14 28.50 27.56 27.99 30.95 31.55 30.55 29.74 26.82 27.96 27.65 29.00 32.26 32.18 31.28 31.72 31.15 30.60 30.49 31.22 31.26 31.07 31.58 31.42 31.10 31.27 31.02 31.19 31.85 31.13
38.02 37.50 37.18 37.13 37.74 37.19 36.42 35.25 33.16 32.31 31.95 31.81 30.40 29.89 29.99 27.33 19.88 24.33 29.19 29.09 26.63 25.11 29.20 27.76 27.73 27.52 28.02 28.03 32.39 31.02 30.47 29.80 30.42 30.82 30.72 30.35 30.54 30.44 30.74 30.84 30.61 30.63 30.72 30.60
34.00 33.48 34.48 35.53 35.73 35.51 34.63 34.11 33.36 32.50 31.58 30.42 29.34 29.26 29.25 24.84 25.13 27.17 27.18 27.97 27.93 26.56 29.93 30.38 24.09 26.23 26.32 28.43 29.82 30.70 30.03 30.08 30.10 28.59 28.17 29.09 29.82 29.31 29.89 30.25 29.59 30.03 29.99 30.44
38.05 38.54 38.24 37.74 35.70 34.53 33.83 33.87 33.39 32.23 30.49 30.15 28.82 26.00 19.77 18.18 20.53 24.69 26.23 27.56 27.22 25.35 27.73 27.97 26.63 27.96 28.73 29.95 29.05 29.40 28.98 29.93 30.44 28.78 28.70 29.39 28.88 28.98 29.31 29.17 29.24 29.42 30.09 30.40
39.07 38.61 38.63 39.08 37.03 35.18 34.44 33.55 32.25 30.93 27.23 26.04 21.79 20.46 19.79 18.43 20.81 24.30 25.12 20.28 26.04 25.90 26.43 27.99 27.89 30.08 28.44 28.04 28.05 28.61 30.48 29.46 28.59 28.52 28.91 26.12 27.14 27.20 28.07 28.74 28.85 29.33 29.93 29.70
38.49 38.77 38.74 37.84 37.18 35.95 34.06 31.61 29.20 29.10 28.29 24.60 19.04 17.71 18.37 15.80 16.13 18.62 24.37 26.43 27.31 26.07 27.87 28.64 28.07 27.66 27.85 28.56 27.54 28.52 28.26 27.81 27.53 27.09 26.72 25.78 26.14 27.28 27.85 28.10 28.03 28.18 28.70 28.83
36.21 37.34 36.20 35.94 33.48 31.96 28.61 28.66 25.50 26.82 24.66 20.75 19.93 18.01 17.34 20.26 21.40 18.55 25.83 26.20 27.44 28.13 29.17 29.25 30.00 27.38 27.89 27.69 27.39 27.65 27.28 27.24 25.63 26.19 25.99 25.48 26.08 26.26 26.61 26.97 26.63 27.48 27.25 27.88
36.02 35.43 29.10 28.17 30.99 27.91 28.08 29.01 28.60 22.77 23.66 19.97 17.08 15.39 16.17 23.40 23.01 25.93 24.61 26.24 26.90 28.55 28.81 29.75 30.99 26.44 25.79 24.43 29.14 28.76 28.00 27.33 27.62 26.41 26.51 25.88 25.83 25.80 25.39 25.54 25.29 26.14 26.44 26.69
37.49 36.87 35.93 31.14 30.08 32.12 31.01 30.06 25.71 26.18 23.35 22.45 20.92 23.41 24.14 26.52 25.37 23.62 22.70 26.43 27.14 28.64 28.04 29.56 30.09 29.35 25.50 29.55 29.78 29.02 28.73 28.07 27.21 26.64 25.82 26.52 26.26 26.62 26.20 25.78 25.80 26.18 26.14 26.45
36.88 36.44 36.48 37.59 34.10 32.66 31.36 31.32 29.86 29.86 25.74 27.69 27.01 24.60 27.71 24.10 21.92 25.98 25.46 22.38 24.26 27.87 28.04 29.19 29.24 28.83 28.20 28.70 28.36 28.04 27.69 27.39 27.44 26.92 26.51 25.33 25.65 26.16 25.71 25.79 25.42 25.72 25.99 26.65
35.59 35.17 34.80 34.03 33.84 32.44 32.62 34.05 33.54 30.38 29.66 28.16 28.56 28.61 28.36 27.87 24.64 24.11 21.93 21.51 25.93 27.83 28.01 28.62 28.26 27.89 27.27 26.33 25.92 25.65 25.66 26.12 25.79 26.32 25.83 25.35 23.75 24.32 24.88 24.97 25.82 25.90 25.80 26.14
35.56 33.31 33.63 34.15 33.63 33.39 33.16 33.94 33.10 33.26 31.63 29.20 30.38 28.12 26.34 26.10 25.62 24.02 21.82 24.22 26.24 26.96 26.71 27.13 26.55 26.08 25.10 25.06 24.58 24.23 23.81 23.61 23.60 24.74 25.05 24.80 24.16 24.19 23.01 23.05 23.78 24.11 24.56 24.55
34.70 30.14 32.72 32.61 33.02 33.02 32.00 31.66 29.23 28.04 28.88 28.14 28.71 28.40 27.27 25.05 20.84 21.42 17.30 15.87 20.23 25.62 25.70 25.69 25.61 25.35 24.72 20.93 24.23 23.35 22.58 22.30 23.15 21.76 23.64 22.82 21.60 22.07 22.04 21.97 22.72 22.99 22.53 22.51
MSLP
1025.84 1025.68 1025.93 1026.44 1027.11 1027.63 1028.05 1028.85 1029.58 1029.74 1029.39 1028.05 1026.76 1026.09 1025.25 1024.45 1023.97 1023.43 1022.81 1022.22 1021.72 1021.21 1020.71 1020.48 1020.11 1019.49 1018.98 1018.37 1017.15 1016.72 1016.00 1015.12 1014.81 1012.74 1013.44 1012.48 1011.86 1010.94 1009.77 1010.79 1010.94 1010.48 1010.03 1009.81
1025.05 1025.41 1025.61 1026.18 1026.74 1027.38 1028.09 1028.62 1028.85 1028.96 1028.45 1026.66 1025.38 1025.19 1024.60 1024.18 1023.58 1023.01 1022.50 1022.06 1021.65 1021.13 1020.67 1020.41 1020.08 1019.72 1019.18 1018.64 1017.93 1017.44 1017.03 1016.67 1015.39 1014.13 1014.49 1013.88 1013.85 1012.05 1011.06 1011.20 1011.32 1011.26 1010.08 1009.75
1025.00 1025.34 1025.97 1026.20 1026.42 1026.75 1027.35 1027.69 1027.81 1027.84 1027.02 1025.80 1025.28 1024.81 1024.39 1023.95 1023.52 1022.99 1022.41 1022.06 1021.65 1021.07 1020.82 1020.51 1020.17 1019.75 1019.29 1018.73 1018.25 1017.35 1016.80 1016.38 1016.00 1015.46 1014.87 1015.19 1013.90 1012.01 1011.62 1011.94 1011.85 1011.03 1010.64 1010.88
1025.61 1025.26 1025.83 1025.56 1025.56 1025.70 1026.23 1026.36 1026.59 1026.18 1025.62 1025.00 1024.84 1024.59 1024.17 1023.73 1023.39 1022.90 1022.44 1022.03 1021.62 1021.20 1020.80 1020.64 1020.31 1019.80 1019.37 1019.00 1018.24 1017.78 1017.06 1016.05 1015.68 1015.69 1015.71 1015.38 1014.35 1013.61 1013.67 1013.62 1012.41 1012.98 1012.50 1011.52
1026.27 1026.09 1025.61 1024.92 1024.63 1024.71 1025.06 1026.02 1026.26 1025.50 1024.71 1024.46 1024.29 1024.44 1024.18 1023.53 1023.19 1022.92 1022.55 1021.95 1021.56 1021.24 1021.05 1020.73 1020.55 1020.15 1019.71 1019.18 1018.66 1018.14 1017.69 1017.23 1016.63 1016.15 1015.50 1015.20 1014.85 1014.96 1014.08 1013.09 1013.06 1012.83 1012.68 1012.61
1026.81 1026.58 1025.55 1024.47 1023.69 1023.42 1023.98 1024.96 1024.37 1024.63 1024.29 1024.20 1024.07 1024.49 1024.33 1023.40 1023.01 1022.74 1022.33 1022.09 1021.77 1021.40 1021.27 1021.06 1020.85 1020.49 1019.98 1019.64 1018.96 1018.49 1018.15 1017.82 1017.51 1017.29 1017.00 1016.54 1016.29 1016.09 1015.69 1014.54 1014.23 1013.72 1013.06 1012.41
1026.88 1026.77 1025.12 1023.81 1023.14 1022.80 1023.68 1024.38 1023.44 1023.34 1023.57 1023.80 1024.15 1024.15 1023.84 1023.37 1023.13 1022.84 1022.36 1022.02 1021.78 1021.65 1021.37 1021.38 1021.32 1020.92 1020.55 1020.10 1019.60 1019.20 1018.80 1018.27 1017.72 1017.54 1017.46 1017.36 1017.20 1016.58 1015.90 1015.90 1015.25 1014.60 1013.75 1013.37
1026.44 1026.26 1024.87 1023.32 1022.76 1022.89 1023.21 1022.72 1022.72 1022.82 1023.11 1023.36 1023.50 1023.45 1023.41 1023.26 1023.11 1022.83 1022.35 1022.12 1022.07 1022.04 1021.91 1022.01 1021.84 1021.29 1021.03 1020.66 1020.33 1020.09 1019.57 1018.84 1018.08 1017.78 1017.60 1017.24 1016.74 1016.23 1015.70 1015.51 1015.43 1015.45 1015.07 1014.21
1025.30 1024.93 1023.49 1022.55 1022.27 1021.78 1021.82 1022.07 1022.06 1022.33 1022.49 1022.78 1023.04 1023.22 1023.22 1023.16 1023.11 1022.97 1022.83 1022.59 1022.26 1022.53 1022.26 1022.26 1022.26 1022.10 1021.65 1021.03 1020.61 1020.16 1019.81 1019.30 1018.76 1018.41 1018.05 1017.58 1016.87 1016.23 1015.98 1015.92 1015.63 1015.05 1014.62 1014.50
1023.89 1023.01 1022.37 1021.76 1021.38 1021.19 1021.36 1021.56 1021.69 1021.65 1022.02 1022.42 1022.70 1022.85 1023.03 1023.05 1023.08 1022.98 1022.88 1022.65 1022.63 1022.45 1022.47 1022.49 1022.47 1022.42 1021.93 1021.34 1020.87 1020.40 1020.08 1019.80 1019.47 1019.35 1018.96 1018.30 1017.74 1017.24 1016.72 1016.30 1016.05 1015.65 1015.18 1014.67
1022.51 1022.02 1021.47 1021.09 1021.02 1021.02 1021.14 1021.28 1021.40 1021.48 1021.91 1022.23 1022.46 1022.63 1022.73 1022.97 1022.98 1023.04 1023.27 1023.40 1023.36 1023.24 1022.93 1022.74 1022.50 1022.38 1022.15 1021.87 1021.37 1021.03 1020.68 1020.65 1020.25 1019.91 1019.45 1018.70 1018.06 1017.66 1017.23 1016.74 1016.18 1015.74 1015.23 1014.71
1021.15 1020.74 1020.72 1020.78 1020.65 1020.72 1020.89 1021.17 1021.56 1021.86 1022.09 1022.30 1022.44 1022.64 1022.96 1023.41 1023.92 1024.06 1024.22 1024.28 1024.14 1023.95 1023.67 1023.44 1023.18 1022.90 1022.45 1022.09 1021.81 1021.49 1021.06 1020.80 1020.32 1019.98 1019.55 1019.01 1018.30 1017.75 1017.16 1016.66 1016.14 1015.63 1015.03 1014.35
1019.81 1019.71 1020.01 1020.10 1020.15 1020.40 1020.81 1021.22 1021.61 1021.82 1022.12 1022.78 1022.93 1023.25 1023.65 1024.28 1024.59 1024.64 1024.67 1024.63 1024.68 1024.76 1024.59 1024.33 1023.67 1023.03 1022.79 1022.41 1022.05 1021.86 1021.52 1021.32 1020.69 1020.18 1019.77 1019.21 1018.43 1017.90 1016.99 1016.19 1015.88 1015.35 1014.76 1014.00
1019.08 1019.15 1019.48 1019.70 1020.26 1020.42 1020.87 1021.22 1021.69 1022.35 1022.71 1023.10 1023.47 1023.76 1024.30 1024.74 1024.94 1025.06 1025.12 1025.10 1025.12 1025.03 1024.90 1024.58 1024.13 1023.75 1023.33 1023.02 1022.72 1022.25 1021.49 1021.18 1020.81 1020.47 1019.83 1019.21 1018.63 1017.98 1017.28 1016.53 1015.54 1014.62 1014.07 1013.64
1019.03 1019.03 1019.20 1019.57 1020.04 1020.38 1020.89 1021.51 1022.21 1022.85 1023.26 1023.64 1024.09 1024.58 1024.91 1025.38 1025.66 1025.67 1025.53 1025.39 1025.28 1025.16 1024.95 1024.66 1024.34 1023.95 1023.47 1022.94 1022.43 1021.86 1021.50 1021.38 1020.94 1020.38 1019.73 1019.29 1018.76 1018.01 1017.25 1016.49 1015.79 1015.11 1014.39 1013.93
1019.08 1019.17 1019.31 1019.75 1020.21 1020.75 1021.47 1022.19 1022.85 1023.51 1023.93 1024.35 1024.87 1025.25 1025.61 1026.04 1026.13 1025.96 1025.77 1025.61 1025.56 1025.38 1024.97 1024.74 1024.57 1024.14 1023.53 1023.03 1022.69 1022.39 1022.02 1021.39 1020.86 1020.28 1019.74 1019.14 1018.77 1018.25 1017.36 1016.51 1015.84 1015.32 1014.59 1013.94
1019.19 1019.59 1019.70 1020.19 1020.80 1021.50 1022.17 1022.72 1023.34 1023.94 1024.47 1025.06 1025.60 1025.93 1026.18 1026.49 1026.49 1026.32 1026.05 1025.77 1025.53 1025.26 1024.98 1024.80 1024.68 1024.05 1023.56 1023.07 1022.70 1022.20 1021.64 1021.18 1020.72 1020.17 1019.63 1019.17 1018.72 1018.19 1017.46 1016.61 1016.06 1015.55 1014.84 1014.11
1018.98 1019.52 1019.99 1020.55 1021.25 1021.95 1022.63 1023.15 1023.74 1024.35 1025.00 1025.57 1026.05 1026.45 1026.96 1027.02 1027.01 1026.66 1026.19 1025.92 1025.54 1025.22 1025.13 1024.84 1024.47 1024.01 1023.55 1023.08 1022.75 1022.28 1021.77 1021.27 1020.75 1020.37 1019.84 1019.31 1018.80 1018.21 1017.40 1016.42 1016.41 1015.80 1015.05 1014.13
1019.09 1019.67 1020.16 1020.79 1021.47 1022.16 1022.82 1023.46 1024.11 1024.66 1025.32 1025.92 1026.56 1026.90 1026.89 1026.87 1026.77 1026.43 1026.06 1025.93 1025.62 1025.54 1025.28 1024.83 1024.42 1024.02 1023.61 1023.11 1022.71 1022.21 1021.63 1021.13 1020.74 1020.31 1019.81 1019.28 1018.70 1018.07 1017.48 1017.11 1016.65 1015.95 1015.08 1014.34
1019.61 1020.03 1020.58 1021.17 1021.70 1022.36 1023.03 1023.66 1024.22 1024.91 1025.50 1026.07 1026.57 1027.12 1027.31 1027.00 1026.58 1026.31 1025.96 1025.88 1025.71 1025.61 1025.27 1024.85 1024.48 1024.09 1023.67 1023.15 1022.62 1022.13 1021.72 1021.34 1020.99 1020.57 1020.06 1019.51 1018.88 1018.27 1017.74 1017.22 1016.69 1016.01 1015.35 1014.77
1020.04 1020.39 1020.84 1021.38 1021.99 1022.52 1022.95 1023.44 1024.22 1024.95 1025.42 1025.91 1026.61 1027.05 1027.08 1026.69 1026.35 1025.98 1025.80 1025.60 1025.50 1025.15 1025.17 1024.71 1024.43 1024.24 1023.82 1023.37 1022.83 1022.39 1021.97 1021.56 1021.20 1020.78 1020.27 1019.85 1019.28 1018.64 1018.00 1017.38 1016.76 1016.13 1015.59 1015.12
1020.30 1020.68 1021.09 1021.51 1022.07 1022.58 1022.92 1023.31 1023.90 1024.54 1025.16 1025.73 1026.12 1026.37 1026.53 1026.43 1025.99 1025.67 1025.41 1025.42 1025.27 1025.17 1025.09 1024.75 1024.47 1024.28 1023.96 1023.40 1022.93 1022.55 1022.21 1021.89 1021.43 1021.04 1020.53 1020.03 1019.54 1018.97 1018.42 1017.94 1017.45 1016.90 1016.34 1015.74
1020.20 1020.50 1020.84 1021.30 1021.80 1022.06 1022.52 1023.09 1023.50 1024.03 1024.72 1025.18 1025.55 1025.77 1025.94 1025.77 1025.59 1025.62 1025.39 1025.33 1024.98 1025.07 1024.92 1024.68 1024.44 1024.18 1023.98 1023.53 1023.10 1022.84 1022.51 1022.16 1021.74 1021.31 1020.91 1020.33 1019.81 1019.28 1018.73 1018.19 1017.65 1017.09 1016.39 1015.69
1020.04 1020.30 1020.50 1020.55 1021.08 1021.80 1022.29 1022.44 1022.79 1023.22 1023.71 1024.12 1024.49 1024.81 1025.04 1025.23 1025.23 1024.91 1025.07 1025.09 1024.98 1025.07 1024.85 1024.66 1024.44 1024.20 1024.03 1023.75 1023.41 1023.11 1022.82 1022.51 1022.13 1021.71 1021.30 1020.83 1020.32 1019.65 1019.12 1018.48 1017.85 1017.25 1016.60 1015.89
1019.66 1019.97 1020.22 1020.44 1020.76 1021.07 1021.23 1021.42 1022.08 1022.63 1023.06 1023.47 1023.73 1023.88 1024.18 1024.37 1024.78 1024.85 1024.84 1024.94 1025.01 1024.99 1024.76 1024.63 1024.49 1024.33 1024.19 1024.05 1023.83 1023.55 1023.23 1022.90 1022.55 1022.07 1021.67 1021.28 1020.85 1020.31 1019.75 1019.11 1018.42 1017.76 1017.15 1016.53
1019.38 1019.59 1019.91 1020.00 1020.14 1020.33 1020.55 1020.86 1021.35 1021.75 1022.16 1022.72 1023.09 1023.45 1023.81 1024.13 1024.35 1024.58 1024.77 1024.82 1024.96 1024.98 1024.80 1024.67 1024.56 1024.48 1024.40 1024.20 1024.04 1023.89 1023.67 1023.35 1022.94 1022.45 1022.03 1021.60 1021.32 1020.82 1020.36 1019.79 1019.15 1018.57 1017.99 1017.35
1019.38 1019.50 1019.88 1020.06 1020.00 1020.08 1020.30 1020.59 1021.17 1021.65 1021.90 1022.31 1022.87 1023.33 1023.62 1023.99 1024.32 1024.66 1024.88 1024.96 1024.95 1024.99 1024.90 1024.78 1024.67 1024.58 1024.48 1024.35 1024.16 1024.05 1024.07 1023.82 1023.37 1022.99 1022.48 1022.13 1021.80 1021.35 1020.85 1020.35 1019.75 1019.13 1018.59 1017.94
Wind_Speed
6 7 5 6 5 6 5 1 5 5 3 10 10 6 7 7 8 9 10 11 12 9 9 8 11 13 11 13 17 17 17 16 16 16 15 16 17 16 17 16 14 13 13 12
2 8 7 7 8 5 3 1 1 5 7 9 10 5 6 6 9 10 10 10 13 10 9 9 11 12 12 10 11 14 14 15 17 17 14 15 12 13 15 14 12 12 13 13
3 8 5 3 3 4 3 4 4 2 10 6 5 5 4 5 6 9 11 6 11 13 7 6 8 9 10 12 6 13 14 12 14 15 14 14 15 17 17 14 13 14 13 10
4 2 1 4 6 4 3 4 3 5 2 6 5 3 5 5 5 8 11 6 7 8 7 5 6 10 7 11 12 13 14 15 13 14 13 12 15 15 13 11 12 11 11 10
2 2 1 4 6 6 6 2 3 9 5 6 8 6 3 5 5 6 7 7 5 6 5 7 9 11 14 11 13 12 15 14 11 13 13 15 15 14 13 12 11 10 10 10
2 1 4 5 5 4 4 1 12 7 5 5 6 4 5 7 6 7 7 7 7 7 6 6 7 10 12 13 13 12 14 14 7 9 11 12 11 12 9 9 10 8 10 10
1 1 3 2 3 5 6 7 4 4 4 5 3 4 4 5 6 6 5 7 7 7 6 7 9 11 12 13 15 14 14 14 12 7 10 10 9 7 10 7 7 8 8 9
1 4 5 3 2 4 9 3 1 2 4 5 0 3 3 5 5 7 8 8 9 8 7 10 12 12 13 13 13 13 14 15 14 8 9 9 12 10 11 12 12 12 11 8
7 7 8 6 7 2 1 1 2 5 4 5 2 2 5 5 6 6 7 6 7 6 7 8 10 10 10 10 13 13 14 14 12 11 13 11 10 11 9 9 8 10 10 10
5 6 8 8 3 4 1 3 3 4 3 3 2 3 3 3 2 3 4 5 5 7 7 7 7 9 9 8 10 10 13 14 13 12 14 11 8 7 7 9 9 8 9 9
4 5 3 3 4 5 3 1 6 7 5 4 3 3 2 3 2 4 7 10 10 10 10 8 6 7 7 8 9 11 12 11 12 11 12 11 10 7 5 6 7 8 8 8
7 8 6 2 6 4 4 3 7 7 6 6 5 6 6 7 8 8 8 7 7 8 9 9 9 8 9 8 8 8 11 11 8 8 8 8 8 9 8 7 11 13 15 10
4 4 6 6 3 5 6 6 5 2 4 5 7 6 8 6 7 6 7 7 6 6 6 7 9 7 9 9 9 9 11 10 8 8 8 9 8 8 10 8 8 10 13 15
4 5 3 2 5 6 6 5 3 7 6 7 6 8 7 7 7 7 6 5 6 5 6 7 7 7 9 8 9 9 9 9 7 7 8 8 8 8 8 8 10 10 9 11
6 3 4 7 6 2 5 7 8 7 6 7 7 6 6 7 6 5 5 6 6 5 6 6 5 6 10 10 10 10 9 8 8 7 7 8 8 8 8 8 8 9 9 6
5 2 2 3 4 5 9 8 8 6 6 6 6 6 6 5 3 4 6 6 6 6 7 4 5 6 7 6 5 5 6 9 8 7 8 7 7 8 8 8 8 8 9 9
3 4 2 4 8 7 8 6 6 5 5 6 5 5 5 4 4 5 6 6 6 5 5 6 4 6 7 6 5 6 6 7 10 6 7 7 7 7 8 7 8 8 9 10
5 6 7 8 7 7 6 6 5 6 3 4 3 3 3 2 4 5 6 6 7 5 5 6 5 8 7 6 6 6 6 7 7 7 7 7 8 6 7 7 8 9 8 9
5 7 8 8 7 6 5 5 5 5 5 5 4 2 3 3 4 5 6 4 4 4 6 7 9 7 8 8 7 6 7 7 7 7 7 8 7 7 7 7 8 9 8 9
5 6 7 7 7 5 4 4 7 5 5 5 3 1 4 5 4 5 5 4 3 1 5 7 7 6 8 9 10 5 6 6 7 7 7 7 7 8 7 8 8 8 8 9
1 4 6 7 7 6 6 7 6 6 5 5 5 4 5 5 4 4 4 1 0 4 6 7 5 4 5 7 5 5 5 7 6 7 7 7 8 8 8 9 9 9 9 8
3 1 2 4 5 5 5 6 6 4 5 4 4 3 3 5 5 4 1 3 1 4 5 4 4 5 6 8 5 5 6 7 7 7 7 7 7 7 7 8 8 7 8 8
6 6 6 6 7 8 5 6 6 6 7 6 6 5 5 4 2 1 2 0 3 4 4 4 5 6 7 5 4 5 6 6 7 7 8 8 7 7 8 8 8 8 8 9
2 3 3 3 6 5 6 7 8 8 8 7 7 7 5 2 3 0 3 2 3 4 3 4 5 7 7 5 5 5 6 6 6 6 8 9 8 8 7 8 8 8 9 10
5 6 5 5 6 6 7 6 7 6 7 7 7 6 7 4 4 3 3 1 4 3 2 4 6 6 3 4 5 5 6 6 6 6 6 7 8 8 9 9 9 9 9 9
3 3 3 4 3 3 5 5 5 6 5 4 3 3 3 3 3 3 1 2 1 3 2 2 2 2 3 3 3 4 4 6 7 6 6 5 7 7 8 9 9 9 9 9
1 2 3 3 3 2 3 4 3 3 3 3 3 4 5 3 3 2 2 0 1 2 2 2 2 3 2 3 4 2 3 5 6 6 7 6 7 7 8 9 9 8 9 10
Wind_Direction
241 202 141 115 99 32 67 281 102 260 299 279 281 289 293 357 354 358 355 2 355 353 349 360 4 3 1 357 359 360 2 5 5 23 16 18 6 18 33 20 19 30 36 33
291 166 120 118 116 99 47 115 137 228 284 237 268 298 33 357 357 359 358 4 352 348 355 3 5 3 358 360 9 354 360 8 4 17 17 19 354 20 26 17 20 17 24 22
301 152 132 40 253 149 194 219 194 168 234 288 347 79 37 358 0 356 348 3 355 347 355 357 354 352 356 353 350 4 360 5 13 7 15 11 1 14 16 13 6 7 15 13
265 50 115 239 207 220 97 284 332 284 256 27 42 111 45 7 15 354 343 341 349 344 347 5 348 354 337 360 359 5 2 359 10 11 6 8 14 13 7 359 11 5 0 360
90 16 122 168 209 193 166 230 301 276 53 32 8 146 2 18 8 341 330 327 338 346 349 2 12 9 0 355 4 9 4 358 4 4 3 5 8 7 355 359 354 0 357 354
355 280 220 229 347 85 103 325 257 270 67 51 41 21 288 344 355 350 349 334 350 359 355 14 8 10 8 357 349 9 6 354 358 3 14 7 356 352 354 348 343 341 351 350
204 212 304 69 23 317 98 234 284 122 130 97 80 215 268 2 357 327 327 336 357 357 357 15 13 6 6 357 354 6 360 354 351 17 6 3 354 349 351 354 343 340 354 344
62 58 304 300 358 116 217 249 259 88 90 101 135 346 357 326 350 333 340 356 6 354 12 27 15 6 1 358 3 1 355 351 344 13 9 356 352 353 6 359 357 358 355 357
150 217 222 241 221 207 138 211 314 110 132 132 86 20 319 322 354 2 353 6 350 9 26 20 13 357 344 360 359 355 351 348 353 5 359 345 348 345 350 353 347 350 350 351
74 276 243 241 152 130 153 68 304 154 89 73 334 307 321 352 53 346 342 348 13 9 8 3 0 348 333 358 348 346 350 349 354 356 344 340 342 331 340 343 341 343 340 334
232 258 35 321 147 101 63 44 308 89 85 20 351 327 300 303 322 343 31 32 19 3 347 334 344 337 336 346 353 355 354 349 351 348 343 336 333 323 320 333 321 324 322 321
227 238 167 174 134 183 155 74 69 70 25 340 316 323 17 35 54 46 38 24 6 346 338 353 355 341 350 1 5 358 349 348 343 336 333 330 327 321 304 296 301 303 303 302
184 138 145 167 167 82 99 77 96 56 322 29 32 43 49 74 47 42 30 15 8 4 0 348 328 347 345 355 354 353 353 338 335 331 327 324 326 326 324 327 302 298 293 306
258 157 154 166 145 117 133 129 147 76 69 62 46 54 71 58 34 23 7 2 20 5 353 333 337 346 351 348 341 334 332 336 332 324 318 319 319 317 316 317 325 329 326 320
33 48 154 130 140 170 125 92 74 61 55 38 48 49 55 39 18 350 339 9 359 349 329 324 337 349 344 335 339 333 337 335 325 314 315 312 312 311 312 312 317 319 322 315
13 322 40 122 143 113 96 80 77 61 55 49 49 38 39 39 347 341 355 348 349 323 314 326 332 314 318 312 319 318 330 310 314 318 320 324 320 318 322 324 326 326 333 330
175 307 250 98 91 91 97 93 95 93 76 69 54 29 32 11 353 345 328 327 319 307 326 352 302 317 314 310 328 323 320 323 316 314 326 325 322 324 322 329 328 329 337 341
160 118 109 109 105 104 101 112 111 101 105 114 93 84 62 10 296 306 307 318 330 349 16 341 326 330 325 328 333 324 322 318 323 319 321 324 324 317 325 339 333 332 333 339
97 131 128 119 122 127 139 142 129 128 137 142 127 185 226 252 266 288 307 338 339 13 341 335 334 338 339 327 343 327 339 336 333 334 334 330 329 328 331 332 336 335 337 338
98 100 115 128 132 145 162 138 146 154 166 150 154 235 284 283 278 292 306 323 119 224 352 325 331 342 336 332 337 328 339 344 343 340 340 336 332 332 334 335 338 337 340 345
83 164 167 169 183 180 166 163 156 173 196 162 176 218 233 276 283 270 286 272 234 39 347 315 335 346 336 335 333 340 340 342 344 340 336 340 338 342 345 345 343 342 340 342
211 237 197 194 181 207 192 178 181 161 172 186 215 228 231 281 293 324 69 122 279 24 328 318 316 349 339 330 329 341 346 348 350 343 341 337 337 339 344 349 344 339 338 335
209 217 212 202 210 221 179 197 191 178 184 196 204 216 217 232 241 267 284 316 52 349 314 310 340 340 340 329 331 342 340 339 349 350 343 342 340 346 347 349 345 344 341 340
235 246 235 226 191 175 205 215 195 188 190 195 200 204 203 229 299 175 126 91 31 341 307 327 342 346 352 340 344 349 346 343 344 345 350 348 346 339 348 341 341 345 345 344
229 240 245 250 213 218 218 208 183 184 192 207 212 205 204 203 170 212 135 96 11 320 311 342 348 355 359 351 347 353 347 350 345 333 353 351 347 344 351 348 344 344 347 345
249 243 238 219 206 219 210 185 181 188 190 174 186 175 140 147 125 101 41 88 18 318 306 309 335 348 355 347 355 356 354 347 342 341 346 343 351 350 350 348 348 351 351 346
25 59 35 1 327 293 191 185 154 143 127 115 148 156 153 140 115 108 111 29 332 321 332 336 343 355 360 353 346 16 20 345 343 348 350 7 355 352 350 349 346 348 348 345